#datint,netname,site,siteID,timestamp,IntT,BattV,AirT2,AirT,AirT_Avg,AirT_Max,AirT_Min,RH_Avg,RH_Max,RH_Min,EA_Avg,Td_Avg,Td_Max,Td_Min,WindS_Smp,WindS_Avg,WindD_Avg,WindD_SD,WindS_Max,ETo,ETr,SoilT4,SoilT8,SoilVWC8,SolarW_Avg,wetstate_Avg,wetT_Avg,Precip_accum,Precip_WPG,Precip_TB
15min,AgWx,beryljct,423,21JAN2019:00:00:00,38.4,12.94,40.6,40.0,38.8,40.0,37.5,67,70,64,0.545,28.8,29.3,27.8,0.943,0.6,229,27,3.3,-0.00021,-0.00030,.,35.1,24,0,0,35.8,9.73,0.00,0.00
15min,AgWx,beryljct,423,21JAN2019:00:15:00,37.8,12.94,39.1,38.9,39.4,40.0,38.9,66,68,64,0.546,29.1,29.5,28.6,1.863,0.8,185,15,3.1,-0.00019,-0.00027,.,35.1,25,0,0,36.1,9.74,0.00,0.00
15min,AgWx,beryljct,423,21JAN2019:00:30:00,37.3,12.92,40.9,40.4,39.7,40.4,38.7,66,68,64,0.546,29.3,29.6,29.0,0.789,0.4,171,14,2.4,-0.00023,-0.00035,.,35.1,25,0,0,36.3,9.74,0.00,0.00
15min,AgWx,beryljct,423,21JAN2019:00:45:00,37.2,12.92,39.7,39.7,39.8,40.4,39.1,65,67,64,0.542,29.1,29.4,28.9,1.841,1.9,171,18,6.9,-0.00010,-0.00012,.,35.0,25,0,0,37.4,9.74,0.00,0.00
15min,AgWx,beryljct,423,21JAN2019:01:00:00,37.7,12.92,42.0,41.3,40.6,41.4,39.7,63,66,61,0.537,29.0,29.3,28.7,10.52,7.1,193,10,13.6,0.00012,0.00016,.,35.0,25,0,0,39.8,9.74,0.00,0.00
15min,AgWx,beryljct,423,21JAN2019:01:15:00,38.9,12.92,42.9,41.7,41.6,41.9,41.2,60,61,59,0.532,28.7,28.9,28.6,16.05,11.4,197,8.8,17.1,0.00024,0.00029,.,35.0,25,0,0,41.4,9.74,0.00,0.00
15min,AgWx,beryljct,423,21JAN2019:01:30:00,40.0,12.91,42.5,41.5,41.8,42.1,41.4,59,60,58,0.528,28.5,28.7,28.3,15.17,12.8,193,7.4,17.3,0.00027,0.00032,.,35.0,25,0,0,41.7,9.74,0.00,0.00
15min,AgWx,beryljct,423,21JAN2019:01:45:00,40.5,12.91,42.5,41.2,41.6,42.0,41.2,59,60,58,0.525,28.4,28.5,28.2,17.08,13.8,190,7.4,20.7,0.00028,0.00033,.,35.0,26,0,0,41.3,9.74,0.00,0.00
15min,AgWx,beryljct,423,21JAN2019:02:00:00,40.6,12.91,42.0,41.4,41.4,41.7,41.2,59,60,59,0.523,28.3,28.5,28.1,14.49,13.9,187,7.8,19.0,0.00027,0.00032,.,35.0,25,0,0,41.0,9.74,0.00,0.00
15min,AgWx,beryljct,423,21JAN2019:02:15:00,40.8,12.89,42.3,41.7,41.5,41.9,41.1,59,60,58,0.523,28.2,28.3,28.1,18.06,14.8,190,7.5,19.4,0.00029,0.00033,.,35.0,25,0,0,41.2,9.74,0.01,0.00
15min,AgWx,beryljct,423,21JAN2019:02:30:00,40.9,12.9,41.6,41.2,41.5,41.8,41.2,59,60,58,0.524,28.3,28.4,28.2,16.2,16.0,189,7.1,21.2,0.00030,0.00034,.,35.0,25,0,0,41.2,9.74,0.00,0.00
15min,AgWx,beryljct,423,21JAN2019:02:45:00,40.8,12.89,40.5,40.5,41.0,41.3,40.5,61,62,60,0.531,28.5,28.7,28.3,10.11,14.8,188,7.3,20.7,0.00027,0.00031,.,35.0,25,0,0,40.7,9.74,0.00,0.00
15min,AgWx,beryljct,423,21JAN2019:03:00:00,40.6,12.9,41.1,40.9,40.7,40.9,40.4,62,63,61,0.535,28.7,28.8,28.6,16.88,15.9,180,7.5,21.4,0.00026,0.00030,.,34.9,25,0,0,40.5,9.74,0.00,0.00
15min,AgWx,beryljct,423,21JAN2019:03:15:00,40.6,12.89,40.9,40.8,40.8,41.0,40.7,62,62,62,0.538,28.8,29.0,28.7,15.37,17.4,182,6.3,22.5,0.00028,0.00032,.,34.9,25,0,0,40.8,9.74,0.00,0.00
15min,AgWx,beryljct,423,21JAN2019:03:30:00,40.7,12.89,41.7,41.1,40.9,41.1,40.6,63,63,62,0.547,29.1,29.4,28.9,16.99,16.2,184,7.5,21.2,0.00026,0.00030,.,34.9,25,0,0,41.0,9.74,0.00,0.00
15min,AgWx,beryljct,423,21JAN2019:03:45:00,41.1,12.89,42.2,41.5,41.3,41.7,41.0,63,63,62,0.554,29.5,29.7,29.3,18.5,16.7,185,6.1,22.4,0.00027,0.00031,.,34.9,25,0,0,42.1,9.74,0.00,0.00
15min,AgWx,beryljct,423,21JAN2019:04:00:00,41.6,12.89,42.8,42.2,41.6,42.2,41.3,63,64,61,0.561,29.9,30.1,29.6,20.83,17.0,184,7.9,28.0,0.00027,0.00031,.,34.9,25,0,0,42.7,9.74,0.00,0.00
15min,AgWx,beryljct,423,21JAN2019:04:15:00,41.9,12.89,42.9,42.5,42.2,42.6,41.7,63,64,61,0.576,30.5,30.9,29.8,26.24,23.0,189,10,34.0,0.00032,0.00035,.,34.9,25,0,0,42.5,9.74,0.00,0.00
15min,AgWx,beryljct,423,21JAN2019:04:30:00,42.0,12.88,41.8,41.6,42.1,42.5,41.6,63,65,62,0.576,30.6,30.7,30.4,22.29,25.4,194,8.9,32.7,0.00032,0.00036,.,34.8,25,0,0,42.3,9.74,0.00,0.00
15min,AgWx,beryljct,423,21JAN2019:04:45:00,41.8,12.89,40.1,40.5,41.2,41.6,40.5,65,67,64,0.576,30.4,30.7,30.3,21.99,26.4,192,6.9,34.4,0.00030,0.00033,.,34.8,25,0,0,41.2,9.74,0.01,0.00
15min,AgWx,beryljct,423,21JAN2019:05:00:00,41.3,12.88,40.7,40.4,40.5,40.7,40.2,67,68,66,0.577,30.5,30.7,30.2,24,25.2,195,7.2,33.0,0.00027,0.00030,.,34.8,25,0,0,40.5,9.75,0.00,0.00
15min,AgWx,beryljct,423,21JAN2019:05:15:00,40.8,12.88,39.1,39.3,39.8,40.4,39.3,70,71,68,0.579,30.7,30.9,30.6,19.07,23.1,199,7.7,29.1,0.00023,0.00026,.,34.8,25,0,0,39.7,9.75,0.00,0.00
15min,AgWx,beryljct,423,21JAN2019:05:30:00,40.1,12.86,38.4,38.5,38.9,39.3,38.5,73,74,71,0.582,30.8,31.0,30.7,18.09,21.7,201,7.2,28.7,0.00019,0.00022,.,34.8,25,0,0,38.3,9.76,0.01,0.00
15min,AgWx,beryljct,423,21JAN2019:05:45:00,39.3,12.87,38.4,37.7,37.9,38.5,37.7,76,78,74,0.597,31.1,31.4,30.8,20.26,18.9,207,7.9,27.2,0.00014,0.00016,.,34.8,25,0,0,37.0,9.77,0.01,0.01
15min,AgWx,beryljct,423,21JAN2019:06:00:00,38.6,12.86,36.7,36.3,37.2,38.0,36.3,80,82,78,0.596,31.6,31.9,31.4,21.07,23.0,200,8.7,29.2,0.00012,0.00014,.,34.8,25,0,58,36.6,9.79,0.02,0.02
15min,AgWx,beryljct,423,21JAN2019:06:15:00,38.0,12.87,37.8,37.0,36.8,37.1,36.3,82,83,81,0.605,31.8,32.0,31.4,21.75,20.1,206,6.8,28.8,0.00010,0.00011,.,34.8,25,0,8,36.3,9.80,0.01,0.00
15min,AgWx,beryljct,423,21JAN2019:06:30:00,38.1,12.85,37.8,37.3,37.5,37.7,37.1,80,83,79,0.606,31.8,32.7,31.6,19.82,19.4,202,7.3,25.9,0.00011,0.00013,.,34.8,24,0,0,38.1,9.80,0.00,0.00
15min,AgWx,beryljct,423,21JAN2019:06:45:00,38.1,12.85,37.2,37.0,37.1,37.3,36.8,81,82,80,0.610,31.7,32.0,31.6,18.44,18.1,205,8.6,26.8,0.00010,0.00012,.,34.8,25,0,0,37.1,9.79,0.00,0.00
15min,AgWx,beryljct,423,21JAN2019:07:00:00,37.5,12.84,34.0,33.6,35.2,37.1,33.6,85,89,82,0.578,31.0,32.1,30.1,18.52,19.2,237,16,28.3,0.00030,0.00053,.,34.8,25,0,0,36.2,9.82,0.02,0.01
15min,AgWx,beryljct,423,21JAN2019:07:15:00,36.5,12.85,34.2,33.5,33.4,33.6,33.2,90,91,89,0.584,30.7,31.0,30.5,16.38,17.0,213,7.4,22.0,0.00018,0.00030,.,34.8,25,0,0,36.0,9.83,0.01,0.00
15min,AgWx,beryljct,423,21JAN2019:07:30:00,36.0,12.84,35.1,34.5,34.1,34.6,33.6,86,90,84,0.566,30.5,31.0,30.1,20.19,18.6,226,8.1,27.0,0.00025,0.00044,.,34.7,25,0,0,36.0,9.83,0.00,0.02
15min,AgWx,beryljct,423,21JAN2019:07:45:00,35.8,12.84,34.8,34.5,34.7,34.8,34.5,83,84,82,0.557,30.0,30.3,29.7,15.65,19.5,237,8.9,26.4,0.00033,0.00057,.,34.7,25,0,0,35.6,9.83,0.00,0.01
15min,AgWx,beryljct,423,21JAN2019:08:00:00,35.6,12.85,34.4,34.0,34.1,34.5,33.8,86,87,83,0.570,30.2,30.5,29.7,9.95,12.5,227,8.3,17.2,0.00022,0.00038,.,34.7,25,2,0,36.0,9.83,0.00,0.00
15min,AgWx,beryljct,423,21JAN2019:08:15:00,35.5,12.85,34.1,33.5,33.7,34.1,33.5,88,89,86,0.575,30.4,30.6,30.1,10.02,10.9,221,8.2,14.6,0.00019,0.00031,.,34.7,25,8,0,36.0,9.83,0.00,0.00
15min,AgWx,beryljct,423,21JAN2019:08:30:00,35.3,12.86,33.7,33.3,33.4,33.6,33.3,90,90,89,0.581,30.7,30.8,30.5,7.344,10.5,208,7.7,13.6,0.00018,0.00029,.,34.7,25,15,0,35.6,9.83,0.00,0.00
15min,AgWx,beryljct,423,21JAN2019:08:45:00,35.2,12.87,34.9,34.3,33.6,34.3,33.3,88,90,82,0.548,30.5,30.9,29.3,8.44,9.9,220,15,12.9,0.00024,0.00036,.,34.7,25,29,0,36.1,9.83,0.00,0.00
15min,AgWx,beryljct,423,21JAN2019:09:00:00,35.4,12.87,34.7,34.0,34.2,34.4,34.0,82,84,81,0.555,29.4,29.7,29.2,8.55,8.5,221,9.8,12.8,0.00032,0.00048,.,34.7,24,36,0,36.2,9.83,0.00,0.00
15min,AgWx,beryljct,423,21JAN2019:09:15:00,35.4,12.9,34.6,34.0,33.9,34.1,33.7,84,86,83,0.548,29.7,30.0,29.3,10.28,7.4,231,14,13.2,0.00030,0.00043,.,34.7,25,41,0,36.3,9.83,0.00,0.00
15min,AgWx,beryljct,423,21JAN2019:09:30:00,35.6,12.91,34.3,34.1,34.0,34.2,33.8,82,83,82,0.545,29.2,29.4,29.0,8.7,11.3,255,6.0,15.7,0.00040,0.00059,.,34.7,26,53,0,36.5,9.83,0.00,0.00
15min,AgWx,beryljct,423,21JAN2019:09:45:00,35.6,12.92,34.4,34.0,34.0,34.2,33.9,82,83,82,0.545,29.2,29.3,29.1,10.9,12.1,259,5.8,17.0,0.00044,0.00064,.,34.7,25,67,0,36.7,9.83,0.00,0.00
15min,AgWx,beryljct,423,21JAN2019:10:00:00,35.8,12.96,34.9,34.4,34.1,34.4,33.9,82,83,80,0.536,29.1,29.3,28.8,12.08,11.7,255,6.6,15.9,0.00050,0.00070,.,34.7,25,84,0,37.3,9.83,0.00,0.00
15min,AgWx,beryljct,423,21JAN2019:10:15:00,35.9,12.99,34.6,34.5,34.4,34.6,34.2,80,81,79,0.538,28.9,29.2,28.6,10,11.0,245,8.9,15.1,0.00055,0.00077,.,34.7,25,92,0,37.8,9.83,0.00,0.00
15min,AgWx,beryljct,423,21JAN2019:10:30:00,36.0,13,34.2,33.7,33.9,34.5,33.7,83,84,80,0.543,29.2,29.5,28.9,10.9,9.8,232,7.4,12.9,0.00052,0.00070,.,34.7,25,99,0,37.6,9.83,0.00,0.00
15min,AgWx,beryljct,423,21JAN2019:10:45:00,36.0,12.97,34.0,33.3,33.6,33.9,33.3,82,83,81,0.533,28.7,29.1,28.6,12.01,12.1,233,7.6,17.4,0.00056,0.00076,.,34.7,25,107,0,37.4,9.83,0.00,0.00
15min,AgWx,beryljct,423,21JAN2019:11:00:00,36.0,12.99,34.5,34.0,33.6,34.0,33.3,82,83,79,0.522,28.6,29.0,28.0,19.88,13.1,240,8.8,19.9,0.00061,0.00083,.,34.7,25,126,0,37.5,9.83,0.00,0.00
15min,AgWx,beryljct,423,21JAN2019:11:15:00,36.2,12.99,34.2,33.7,33.9,34.0,33.7,78,79,77,0.505,27.8,28.2,27.3,14.12,16.0,249,7.1,21.8,0.00071,0.00100,.,34.6,25,137,0,37.9,9.83,0.00,0.00
15min,AgWx,beryljct,423,21JAN2019:11:30:00,36.1,13.02,33.7,33.3,33.5,33.7,33.2,78,78,76,0.499,27.2,27.7,26.8,21.77,18.1,255,7.3,24.3,0.00071,0.00102,.,34.6,25,135,0,37.4,9.83,0.00,0.00
15min,AgWx,beryljct,423,21JAN2019:11:45:00,36.0,13.01,33.7,33.0,33.2,33.3,33.0,77,78,76,0.488,26.7,27.0,26.5,19.88,20.2,256,7.3,25.5,0.00073,0.00106,.,34.6,25,138,0,37.0,9.83,0.00,0.00
15min,AgWx,beryljct,423,21JAN2019:12:00:00,35.9,13,33.8,33.2,33.1,33.2,33.0,77,78,75,0.493,26.5,26.9,26.0,18.57,18.5,253,8.1,26.6,0.00070,0.00102,.,34.6,25,125,0,36.8,9.83,0.00,0.00
15min,AgWx,beryljct,423,21JAN2019:12:15:00,35.8,12.97,34.0,33.5,33.3,33.5,33.2,76,78,75,0.498,26.6,27.4,26.2,10.33,13.5,240,7.6,20.4,0.00064,0.00092,.,34.6,25,105,0,37.0,9.83,0.00,0.00
15min,AgWx,beryljct,423,21JAN2019:12:30:00,35.9,12.99,34.0,33.5,33.5,33.6,33.3,77,79,75,0.501,27.1,27.6,26.4,9.43,11.2,229,8.1,16.3,0.00060,0.00085,.,34.6,25,101,0,37.2,9.83,0.00,0.00
15min,AgWx,beryljct,423,21JAN2019:12:45:00,35.9,12.96,34.3,33.9,33.9,34.2,33.5,74,77,71,0.484,26.4,27.3,25.7,10.5,13.4,253,9.7,19.7,0.00069,0.00101,.,34.6,25,107,0,37.5,9.83,0.00,0.00
15min,AgWx,beryljct,423,21JAN2019:13:00:00,36.1,13,34.3,33.8,33.8,33.9,33.7,74,76,73,0.479,26.5,27.0,26.0,16.24,12.8,253,8.3,17.5,0.00072,0.00102,.,34.6,25,125,0,37.8,9.83,0.00,0.00
15min,AgWx,beryljct,423,21JAN2019:13:15:00,36.2,13.01,34.2,33.8,33.8,33.9,33.7,74,76,72,0.487,26.3,27.0,25.9,13.37,13.5,256,8.2,18.2,0.00073,0.00105,.,34.6,25,124,0,37.6,9.83,0.00,0.00
15min,AgWx,beryljct,423,21JAN2019:13:30:00,36.2,13,34.5,33.9,33.8,33.9,33.7,75,76,74,0.497,26.5,27.0,26.3,13.57,13.7,255,10,17.8,0.00072,0.00103,.,34.6,25,124,0,37.6,9.83,0.00,0.00
15min,AgWx,beryljct,423,21JAN2019:13:45:00,36.2,13.04,34.8,34.2,34.0,34.2,33.7,76,77,74,0.507,27.2,27.8,26.5,12.06,12.2,258,8.4,17.0,0.00071,0.00099,.,34.6,25,137,0,38.1,9.83,0.00,0.00
15min,AgWx,beryljct,423,21JAN2019:14:00:00,36.4,13.08,35.2,34.5,34.4,34.6,34.2,76,77,75,0.510,27.7,28.1,27.2,14.82,13.3,258,8.7,17.3,0.00078,0.00108,.,34.6,25,172,0,38.9,9.83,0.00,0.00
15min,AgWx,beryljct,423,21JAN2019:14:15:00,36.6,13.1,35.3,34.7,34.6,34.8,34.5,76,77,75,0.518,27.7,28.2,27.3,16.24,14.6,264,7.1,20.0,0.00078,0.00110,.,34.6,25,167,0,38.8,9.83,0.00,0.00
15min,AgWx,beryljct,423,21JAN2019:14:30:00,36.8,13.12,35.8,35.1,34.9,35.2,34.7,76,77,75,0.523,28.1,28.6,27.7,11.6,13.4,263,9.0,16.8,0.00074,0.00104,.,34.6,25,154,0,39.0,9.83,0.00,0.00
15min,AgWx,beryljct,423,21JAN2019:14:45:00,37.0,13.13,36.0,35.5,35.3,35.5,35.2,75,76,74,0.532,28.3,28.7,27.8,17.76,14.7,270,7.8,19.1,0.00075,0.00107,.,34.6,25,157,0,39.2,9.83,0.00,0.00
15min,AgWx,beryljct,423,21JAN2019:15:00:00,37.3,13.2,37.0,36.4,35.9,36.4,35.5,74,76,72,0.524,28.4,28.8,27.9,11.38,13.9,271,7.3,18.4,0.00078,0.00111,.,34.6,25,176,0,40.0,9.82,0.00,0.00
15min,AgWx,beryljct,423,21JAN2019:15:15:00,37.9,13.34,38.3,37.5,36.8,37.5,36.3,72,74,70,0.535,28.6,29.1,28.1,12.19,11.6,280,8.8,15.2,0.00079,0.00113,.,34.6,25,200,0,41.5,9.83,0.00,0.00
15min,AgWx,beryljct,423,21JAN2019:15:30:00,38.7,13.23,38.0,37.4,37.7,38.1,37.4,70,71,68,0.535,28.7,29.6,28.1,14.05,13.2,281,8.7,17.1,0.00076,0.00115,.,34.6,25,162,0,42.0,9.82,0.00,0.00
15min,AgWx,beryljct,423,21JAN2019:15:45:00,38.6,13.15,34.7,34.2,36.1,37.5,34.2,79,90,69,0.596,30.0,31.4,28.4,9.4,11.5,6.1,45,17.0,0.00046,0.00070,.,34.6,25,95,51,38.2,9.82,0.00,0.00
15min,AgWx,beryljct,423,21JAN2019:16:00:00,37.8,13.05,33.6,33.6,34.2,34.4,33.6,91,91,90,0.592,31.7,32.0,31.2,13.15,8.6,26,11,13.2,0.00017,0.00025,.,34.6,25,68,100,36.3,9.82,0.00,0.00
15min,AgWx,beryljct,423,21JAN2019:16:15:00,36.7,12.98,32.8,32.3,32.6,33.6,32.3,91,93,90,0.573,30.4,31.2,30.2,14.71,12.5,355,14,16.6,0.00011,0.00021,.,34.6,25,37,100,35.5,9.83,0.01,0.00
15min,AgWx,beryljct,423,21JAN2019:16:30:00,35.8,12.93,32.3,31.9,32.1,32.3,31.9,94,94,93,0.572,30.4,30.6,30.3,7.848,10.0,340,21,18.2,0.00000,0.00006,.,34.6,25,20,100,35.4,9.85,0.02,0.00
15min,AgWx,beryljct,423,21JAN2019:16:45:00,35.1,12.91,32.2,31.7,31.8,31.9,31.7,95,95,94,0.576,30.5,30.6,30.4,7.629,7.5,318,7.4,10.7,-0.00018,-0.00015,.,34.6,25,23,48,35.8,9.86,0.01,0.00
15min,AgWx,beryljct,423,21JAN2019:17:00:00,34.7,12.93,32.9,32.3,32.0,32.3,31.7,96,96,95,0.590,30.8,31.2,30.6,7.256,8.2,348,24,11.6,0.00003,0.00003,.,34.6,25,36,0,36.0,9.87,0.01,0.00
15min,AgWx,beryljct,423,21JAN2019:17:15:00,34.5,12.92,31.0,30.6,31.3,32.3,30.6,92,96,88,0.507,29.3,31.2,27.5,8.94,10.1,53,15,14.2,0.00005,0.00006,.,34.7,25,43,0,35.4,9.87,0.00,0.00
15min,AgWx,beryljct,423,21JAN2019:17:30:00,33.9,12.86,30.5,30.0,30.2,30.6,29.9,87,88,87,0.491,26.9,27.4,26.6,8.97,8.9,51,6.6,11.6,0.00007,0.00008,.,34.7,25,28,0,35.5,9.87,0.00,0.00
15min,AgWx,beryljct,423,21JAN2019:17:45:00,33.2,12.84,30.3,29.6,29.8,30.0,29.6,86,87,86,0.479,26.3,26.7,26.0,7.98,7.8,44,5.6,12.1,0.00005,0.00006,.,34.7,25,8,0,35.4,9.87,0.00,0.00
15min,AgWx,beryljct,423,21JAN2019:18:00:00,32.3,12.82,29.5,29.0,29.2,29.7,28.8,87,88,86,0.472,25.8,26.1,25.5,6.401,6.4,36,5.6,8.1,0.00003,0.00004,.,34.7,25,2,0,35.5,9.87,0.00,0.00
15min,AgWx,beryljct,423,21JAN2019:18:15:00,31.6,12.81,29.1,28.6,28.7,29.0,28.5,87,87,87,0.463,25.4,25.7,25.2,5.437,6.3,39,5.6,7.7,0.00003,0.00004,.,34.7,25,0,0,35.4,9.87,0.00,0.00
15min,AgWx,beryljct,423,21JAN2019:18:30:00,30.8,12.8,28.9,28.1,28.3,28.6,28.0,87,88,87,0.458,25.0,25.3,24.6,4.406,4.4,17,8.3,5.9,0.00001,0.00002,.,34.7,25,0,0,35.6,9.87,0.00,0.00
15min,AgWx,beryljct,423,21JAN2019:18:45:00,30.2,12.8,25.7,25.7,27.1,28.3,25.7,88,89,87,0.421,24.1,25.2,23.0,2.565,4.0,349,17,5.8,0.00001,0.00001,.,34.7,25,0,0,35.4,9.87,0.00,0.00
15min,AgWx,beryljct,423,21JAN2019:19:00:00,29.4,12.78,28.7,27.9,26.3,27.9,25.4,91,92,89,0.467,24.1,25.6,22.8,5.919,3.9,348,15,5.9,-0.00001,-0.00000,.,34.7,25,0,0,35.6,9.87,0.00,0.00
15min,AgWx,beryljct,423,21JAN2019:19:15:00,29.1,12.78,28.9,28.0,27.8,28.2,27.3,88,90,86,0.449,24.7,25.4,24.1,6.27,5.4,9.9,11,7.3,0.00002,0.00003,.,34.8,25,0,0,35.6,9.87,0.00,0.00
15min,AgWx,beryljct,423,21JAN2019:19:30:00,29.3,12.78,29.5,28.8,28.5,28.9,28.0,86,87,86,0.463,25.0,25.3,24.5,7.168,6.6,15,8.8,9.2,0.00003,0.00004,.,34.8,25,0,0,35.8,9.87,0.00,0.00
15min,AgWx,beryljct,423,21JAN2019:19:45:00,29.6,12.78,28.6,28.3,28.8,29.1,28.2,87,88,86,0.464,25.4,25.7,25.2,3.836,5.4,355,10,7.3,0.00002,0.00003,.,34.8,25,0,0,35.5,9.87,0.00,0.00
15min,AgWx,beryljct,423,21JAN2019:20:00:00,29.8,12.64,29.6,28.5,28.3,28.6,28.1,89,89,87,0.463,25.4,25.6,25.1,9.34,5.3,11,12,9.6,0.00001,0.00002,.,34.7,25,0,0,35.5,9.87,0.00,0.00
15min,AgWx,beryljct,423,21JAN2019:20:15:00,29.8,12.77,29.1,28.5,28.6,28.7,28.5,87,87,86,0.461,25.1,25.3,24.9,8.15,7.6,26,7.5,9.5,0.00004,0.00005,.,34.8,25,0,0,35.3,9.87,0.00,0.00
15min,AgWx,beryljct,423,21JAN2019:20:30:00,29.9,12.76,29.2,28.7,28.6,28.7,28.5,88,88,87,0.470,25.4,25.6,25.1,8.09,7.4,36,7.4,9.8,0.00003,0.00004,.,34.8,26,0,0,35.6,9.87,0.00,0.00
15min,AgWx,beryljct,423,21JAN2019:20:45:00,30.0,12.76,29.3,28.8,28.7,28.8,28.5,88,88,87,0.468,25.5,25.7,25.4,9.23,9.1,44,8.4,12.3,0.00004,0.00005,.,34.7,25,0,0,35.6,9.87,0.00,0.00
15min,AgWx,beryljct,423,21JAN2019:21:00:00,30.0,12.75,29.7,29.1,28.9,29.1,28.8,87,87,86,0.464,25.4,25.5,25.3,11.29,9.5,44,5.7,13.6,0.00005,0.00006,.,34.8,25,0,0,35.9,9.87,0.00,0.00
15min,AgWx,beryljct,423,21JAN2019:21:15:00,30.3,12.76,29.9,29.2,29.2,29.4,29.1,85,86,84,0.460,25.2,25.3,25.1,9.76,10.1,43,5.3,13.2,0.00006,0.00007,.,34.7,25,0,0,36.0,9.87,0.00,0.00
15min,AgWx,beryljct,423,21JAN2019:21:30:00,30.5,12.78,30.4,29.7,29.4,29.7,29.2,84,85,82,0.456,25.1,25.3,24.9,10.52,8.5,35,6.5,11.3,0.00006,0.00007,.,34.7,25,0,0,35.5,9.87,0.00,0.00
15min,AgWx,beryljct,423,21JAN2019:21:45:00,30.8,12.76,30.2,29.7,29.8,29.9,29.7,82,82,81,0.448,24.8,25.0,24.5,11.27,10.8,35,7.1,14.3,0.00008,0.00010,.,34.7,26,0,0,35.1,9.87,0.00,0.00
15min,AgWx,beryljct,423,21JAN2019:22:00:00,30.8,12.76,29.2,28.7,29.2,29.7,28.7,80,81,80,0.432,23.9,24.5,23.5,10.9,11.3,43,6.6,14.3,0.00009,0.00010,.,34.7,26,0,0,35.6,9.87,0.00,0.00
15min,AgWx,beryljct,423,21JAN2019:22:15:00,30.5,12.63,29.3,28.6,28.6,28.7,28.5,81,81,80,0.426,23.4,23.6,23.3,12.12,10.7,38,7.1,13.6,0.00008,0.00010,.,34.7,25,0,0,35.9,9.87,0.00,0.00
15min,AgWx,beryljct,423,21JAN2019:22:30:00,30.3,12.75,28.8,28.2,28.5,28.7,28.2,80,80,79,0.419,23.2,23.4,22.8,7.432,8.8,32,7.4,12.1,0.00008,0.00009,.,34.7,25,0,0,35.5,9.87,0.00,0.00
15min,AgWx,beryljct,423,21JAN2019:22:45:00,29.9,12.75,28.4,27.7,27.9,28.3,27.6,80,81,79,0.408,22.7,22.9,22.3,14.8,10.0,49,7.7,15.2,0.00008,0.00009,.,34.7,25,0,0,35.5,9.87,0.00,0.00
15min,AgWx,beryljct,423,21JAN2019:23:00:00,29.6,12.75,28.6,28.1,27.9,28.1,27.7,79,80,78,0.410,22.2,22.4,22.0,8,10.0,43,11,14.5,0.00009,0.00010,.,34.7,25,0,0,35.7,9.87,0.00,0.00
15min,AgWx,beryljct,423,21JAN2019:23:15:00,29.5,12.75,28.5,28.0,28.1,28.4,27.9,77,79,75,0.396,21.8,22.4,21.5,8.24,9.8,32,5.5,13.5,0.00010,0.00011,.,34.7,25,0,0,35.4,9.87,0.00,0.00
15min,AgWx,beryljct,423,21JAN2019:23:30:00,29.2,12.74,27.9,27.2,27.5,28.0,27.2,78,80,76,0.397,21.6,22.0,21.2,8.48,7.9,42,12,11.1,0.00008,0.00009,.,34.7,25,0,0,35.6,9.87,0.00,0.00
15min,AgWx,bigpiney,439,21JAN2019:00:00:00,22.8,12.72,20.3,19.7,19.5,19.7,19.3,93,93,92,0.339,17.7,17.9,17.4,0,0.1,54,23,1.1,-0.00009,-0.00014,29.5,30.3,8,0,0,0.0,0.05,0.00,0.00
15min,AgWx,bigpiney,439,21JAN2019:00:15:00,22.8,12.71,20.3,19.9,19.8,20.0,19.7,93,93,92,0.342,18.0,18.2,17.9,1.513,0.5,200,45,1.6,-0.00008,-0.00012,29.5,30.3,8,0,0,0.0,0.05,0.00,0.00
15min,AgWx,bigpiney,439,21JAN2019:00:30:00,22.9,12.7,19.0,18.7,19.3,20.0,18.7,92,93,91,0.322,17.3,18.2,16.7,3.025,1.9,32,17,4.6,-0.00005,-0.00006,29.5,30.3,8,0,0,0.0,0.05,0.00,0.00
15min,AgWx,bigpiney,439,21JAN2019:00:45:00,22.8,12.7,18.6,18.2,18.4,18.9,18.1,91,92,91,0.315,16.3,16.8,15.9,2.872,1.6,77,32,3.7,-0.00005,-0.00006,29.5,30.4,8,0,0,0.0,0.05,0.00,0.00
15min,AgWx,bigpiney,439,21JAN2019:01:00:00,22.6,12.7,19.3,18.7,18.5,18.8,18.2,92,92,91,0.323,16.5,16.9,16.1,1.469,1.0,172,32,2.7,-0.00006,-0.00008,29.5,30.4,8,0,0,0.0,0.05,0.00,0.00
15min,AgWx,bigpiney,439,21JAN2019:01:15:00,22.5,12.69,19.9,19.3,19.1,19.3,18.7,92,92,92,0.331,17.2,17.4,16.8,0,0.9,239,11,1.6,-0.00007,-0.00009,29.5,30.3,8,0,0,0.0,0.05,0.00,0.00
15min,AgWx,bigpiney,439,21JAN2019:01:30:00,22.5,12.67,20.2,19.7,19.6,19.8,19.3,92,92,92,0.338,17.7,17.9,17.4,0,0.2,119,6.4,0.8,-0.00009,-0.00013,29.5,30.4,8,0,0,0.0,0.05,0.00,0.00
15min,AgWx,bigpiney,439,21JAN2019:01:45:00,22.6,12.69,20.4,20.0,20.0,20.2,19.8,92,92,92,0.342,18.0,18.2,17.8,2.696,1.4,302,30,3.4,-0.00006,-0.00008,29.5,30.3,8,0,0,0.0,0.05,0.00,0.00
15min,AgWx,bigpiney,439,21JAN2019:02:00:00,22.7,12.67,20.5,19.8,19.8,20.0,19.5,92,92,91,0.340,17.8,18.1,17.4,2.192,1.9,23,81,4.6,-0.00005,-0.00006,29.5,30.4,8,0,0,0.0,0.05,0.00,0.00
15min,AgWx,bigpiney,439,21JAN2019:02:15:00,22.8,12.68,17.8,18.0,19.3,20.2,18.0,91,93,90,0.306,17.2,18.3,15.6,2.74,2.3,53,35,3.6,-0.00004,-0.00005,29.5,30.4,8,0,0,0.0,0.05,0.00,0.00
15min,AgWx,bigpiney,439,21JAN2019:02:30:00,22.6,12.66,18.4,17.9,17.6,18.0,17.4,91,92,90,0.310,15.3,15.8,15.0,0,0.8,65,41,2.4,-0.00006,-0.00009,29.5,30.4,8,0,0,0.0,0.05,0.00,0.00
15min,AgWx,bigpiney,439,21JAN2019:02:45:00,22.4,12.65,18.8,18.4,18.2,18.5,17.9,92,92,91,0.317,16.2,16.4,15.8,0.745,0.1,142,0.0,0.7,-0.00009,-0.00014,29.5,30.4,8,0,0,0.0,0.05,0.00,0.00
15min,AgWx,bigpiney,439,21JAN2019:03:00:00,22.3,12.65,18.8,18.4,18.4,18.6,18.3,91,92,91,0.316,16.3,16.5,16.1,0,0.4,338,17,1.2,-0.00008,-0.00011,29.5,30.4,8,0,0,0.0,0.05,0.00,0.00
15min,AgWx,bigpiney,439,21JAN2019:03:15:00,22.1,12.66,18.7,18.5,18.5,18.7,18.4,91,92,91,0.318,16.4,16.6,16.2,1.885,1.3,108,13,2.5,-0.00006,-0.00007,29.6,30.4,8,0,0,0.0,0.05,0.00,0.00
15min,AgWx,bigpiney,439,21JAN2019:03:30:00,22.0,12.64,18.5,18.3,18.4,18.5,18.3,91,91,91,0.314,16.2,16.4,16.1,1.403,2.4,101,9.6,3.4,-0.00004,-0.00004,29.6,30.3,8,0,0,0.0,0.05,0.00,0.00
15min,AgWx,bigpiney,439,21JAN2019:03:45:00,21.9,12.64,17.7,17.5,17.9,18.3,17.5,91,91,90,0.302,15.6,16.1,15.2,2.806,2.3,94,10,3.0,-0.00004,-0.00004,29.6,30.4,8,0,0,0.0,0.05,0.00,0.00
15min,AgWx,bigpiney,439,21JAN2019:04:00:00,21.7,12.64,17.3,17.0,17.3,17.6,17.0,90,91,90,0.295,14.9,15.2,14.6,1.403,2.3,99,7.1,3.0,-0.00004,-0.00004,29.6,30.3,8,0,0,0.0,0.05,0.00,0.00
15min,AgWx,bigpiney,439,21JAN2019:04:15:00,21.4,12.64,17.2,16.9,17.0,17.1,16.9,91,91,90,0.294,14.7,14.9,14.6,0,1.1,101,14,2.1,-0.00006,-0.00008,29.6,30.4,8,0,0,0.0,0.05,0.00,0.00
15min,AgWx,bigpiney,439,21JAN2019:04:30:00,21.2,12.63,17.5,17.2,17.0,17.2,16.9,91,91,91,0.298,14.8,14.9,14.6,0.745,0.2,40,6.2,1.1,-0.00008,-0.00012,29.5,30.5,8,0,0,0.0,0.05,0.00,0.00
15min,AgWx,bigpiney,439,21JAN2019:04:45:00,21.1,12.63,17.6,17.3,17.2,17.3,17.1,91,91,91,0.300,15.0,15.2,14.9,0.965,0.3,126,23,1.0,-0.00008,-0.00011,29.6,30.4,8,0,0,0.0,0.05,0.00,0.00
15min,AgWx,bigpiney,439,21JAN2019:05:00:00,21.0,12.62,18.0,17.6,17.4,17.6,17.2,91,91,91,0.305,15.2,15.5,15.0,0.329,0.4,197,24,1.1,-0.00007,-0.00011,29.6,30.3,8,0,0,0.0,0.05,0.00,0.00
15min,AgWx,bigpiney,439,21JAN2019:05:15:00,21.0,12.61,18.3,17.9,17.7,18.0,17.6,91,91,91,0.310,15.6,15.8,15.4,0.702,0.5,257,45,1.4,-0.00007,-0.00011,29.5,30.4,8,0,0,0.0,0.05,0.00,0.00
15min,AgWx,bigpiney,439,21JAN2019:05:30:00,21.0,12.6,18.2,17.9,17.9,18.0,17.9,91,91,91,0.308,15.7,15.8,15.6,1.359,1.3,329,10,2.0,-0.00005,-0.00007,29.5,30.4,8,0,0,0.0,0.05,0.00,0.00
15min,AgWx,bigpiney,439,21JAN2019:05:45:00,21.1,12.6,18.4,18.1,18.1,18.2,17.9,91,91,91,0.311,15.9,16.1,15.7,1.337,1.2,326,24,1.7,-0.00006,-0.00007,29.5,30.4,8,0,0,0.0,0.05,0.00,0.00
15min,AgWx,bigpiney,439,21JAN2019:06:00:00,21.2,12.59,18.3,18.0,18.1,18.2,18.0,91,91,91,0.310,15.8,16.0,15.8,1.776,1.4,18,15,2.2,-0.00005,-0.00007,29.5,30.4,8,0,0,0.0,0.05,0.00,0.00
15min,AgWx,bigpiney,439,21JAN2019:06:15:00,21.2,12.59,18.2,17.9,17.9,18.1,17.9,91,91,91,0.307,15.7,15.8,15.6,1.403,1.6,37,6.4,2.1,-0.00005,-0.00006,29.5,30.4,8,0,0,0.0,0.05,0.00,0.00
15min,AgWx,bigpiney,439,21JAN2019:06:30:00,21.2,12.57,18.0,17.9,17.8,18.0,17.8,91,91,91,0.307,15.6,15.8,15.5,1.535,1.2,51,10,1.7,-0.00006,-0.00008,29.5,30.3,8,0,0,0.0,0.05,0.00,0.00
15min,AgWx,bigpiney,439,21JAN2019:06:45:00,21.2,12.58,18.2,17.9,17.8,18.0,17.8,91,91,91,0.308,15.6,15.9,15.5,0.482,0.7,23,7.6,1.6,-0.00007,-0.00010,29.5,30.3,8,0,0,0.0,0.05,0.00,0.00
15min,AgWx,bigpiney,439,21JAN2019:07:00:00,21.2,12.57,18.5,18.2,18.0,18.2,17.9,91,91,91,0.312,15.8,16.0,15.6,1.162,0.9,338,13,1.4,-0.00006,-0.00009,29.5,30.3,8,0,0,0.0,0.05,0.00,0.00
15min,AgWx,bigpiney,439,21JAN2019:07:15:00,21.2,12.54,18.8,18.5,18.3,18.5,18.2,91,91,91,0.316,16.1,16.2,15.9,1.578,1.5,316,4.9,1.8,-0.00005,-0.00007,29.5,30.3,8,0,0,0.0,0.05,0.00,0.00
15min,AgWx,bigpiney,439,21JAN2019:07:30:00,21.3,12.54,19.1,18.8,18.6,18.9,18.4,91,91,91,0.320,16.4,16.7,16.2,2.039,1.7,299,8.3,2.2,-0.00005,-0.00006,29.5,30.4,8,0,0,0.0,0.05,0.00,0.00
15min,AgWx,bigpiney,439,21JAN2019:07:45:00,21.4,12.55,19.7,19.3,19.1,19.3,18.8,91,92,91,0.330,16.9,17.3,16.6,2.28,2.1,314,6.8,2.7,-0.00004,-0.00005,29.5,30.3,8,1,0,0.0,0.05,0.00,0.00
15min,AgWx,bigpiney,439,21JAN2019:08:00:00,21.6,12.54,20.3,19.9,19.6,20.0,19.3,92,92,91,0.338,17.6,17.9,17.2,3.288,3.0,312,6.9,4.0,-0.00000,0.00002,29.5,30.4,8,4,0,0.0,0.05,0.00,0.00
15min,AgWx,bigpiney,439,21JAN2019:08:15:00,21.9,12.55,20.7,20.3,20.1,20.3,19.9,92,92,92,0.346,18.1,18.3,17.8,3.858,3.5,325,6.1,4.6,0.00001,0.00003,29.5,30.4,8,11,0,0.0,0.05,0.00,0.00